Weather History for Alpena, MI

Change the Weather History Date:

Sunday, November 25, 2012

  Actual Average Record
Temperature  
Mean Temperature 29 °F 32 °F  
Max Temperature 32 °F 39 °F 59 °F (1984)
Min Temperature 26 °F 26 °F -1 °F (1950)
Degree Days  
Heating Degree Days 36 33  
Month to date heating degree days 677 710  
Since 1 July heating degree days 1517 1654  
Moisture  
Dew Point 24 °F    
Average Humidity 80    
Maximum Humidity 92    
Minimum Humidity 68    
Precipitation  
Precipitation 0.08 in 0.07 in 1.04 in (1919)
Month to date precipitation 0.73 1.77  
Year to date precipitation 24.93 26.08  
Snow  
Snow 0.80 in 0.40 in 8.00 in (1919)
Month to date snowfall 0.8 5.7  
Since 1 July snowfall 0.8 6.1  
Snow Depth 1.00 in    
Sea Level Pressure  
Sea Level Pressure 29.83 in    
Wind  
Wind Speed 6 mph (SW)    
Max Wind Speed 14 mph    
Max Gust Speed 18 mph    
Visibility 5 miles    
Events Snow    
T = Trace of Precipitation, MM = Missing Value Source: NWS Daily Summary

Daily Weather History Graph

Daily Weather History Graph

Search for Another Location

Airport:

Trip Planner

Search our weather history database for the weather conditions in past years. The results will help you decide how hot, cold, wet, or windy it might be!

Date:

Astronomy

Nov. 25, 2012 Rise Set
Actual Time 7:45 AM EST 4:56 PM EST
Civil Twilight 7:13 AM EST 5:29 PM EST
Nautical Twilight 6:36 AM EST 6:05 PM EST
Astronomical Twilight 6:01 AM EST 6:40 PM EST
Moon 3:17 PM EST (11/25) 4:53 AM EST (11/25)
Length of Visible Light 10h 16m
Length of Day
9h 10m
Waxing Gibbous, 93% of the Moon is Illuminated
Nov 25
Waxing Gibbous
Nov 28
Full
Dec 6
Last Quarter
Dec 13
New
Dec 20
First Quarter

Hourly Weather History & Observations

Time (EST) Temp. Windchill Dew Point Humidity Pressure Visibility Wind Dir Wind Speed Gust Speed Precip Events Conditions
12:54 AM 27.0 °F - 19.0 °F 72% 29.96 in 10.0 mi Calm Calm - N/A   Overcast
1:54 AM 27.0 °F 21.6 °F 19.9 °F 75% 29.95 in 10.0 mi SW 4.6 mph - N/A   Overcast
2:11 AM 28.4 °F 22.2 °F 19.4 °F 69% 29.91 in 10.0 mi WSW 5.8 mph - N/A   Overcast
2:54 AM 27.0 °F 19.5 °F 21.0 °F 78% 29.93 in 2.5 mi SW 6.9 mph - 0.00 in Snow Light Snow
3:29 AM 26.6 °F 22.6 °F 23.0 °F 86% 29.89 in 3.0 mi SW 3.5 mph - 0.01 in Snow Light Snow
3:36 AM 26.6 °F 20.0 °F 23.0 °F 86% 29.89 in 2.5 mi SW 5.8 mph - 0.01 in Snow Light Snow
3:49 AM 26.6 °F 20.0 °F 23.0 °F 86% 29.88 in 2.0 mi SW 5.8 mph - 0.01 in Snow Light Snow
3:54 AM 26.1 °F 19.4 °F 23.0 °F 88% 29.91 in 1.8 mi SSW 5.8 mph - 0.01 in Snow Light Snow
4:05 AM 26.6 °F 22.6 °F 23.0 °F 86% 29.87 in 2.0 mi South 3.5 mph - 0.00 in Snow Light Snow
4:19 AM 26.6 °F 20.0 °F 23.0 °F 86% 29.86 in 1.8 mi SSW 5.8 mph - 0.00 in Snow Light Snow
4:29 AM 26.6 °F 21.2 °F 23.0 °F 86% 29.86 in 2.0 mi SSW 4.6 mph - 0.00 in Snow Light Snow
4:54 AM 26.1 °F 20.5 °F 23.0 °F 88% 29.88 in 2.0 mi South 4.6 mph - 0.01 in Snow Light Snow
5:03 AM 26.6 °F 20.0 °F 23.0 °F 86% 29.84 in 1.8 mi South 5.8 mph - 0.00 in Snow Light Snow
5:24 AM 26.6 °F 21.2 °F 24.8 °F 93% 29.84 in 2.0 mi South 4.6 mph - 0.01 in Snow Light Snow
5:38 AM 26.6 °F 20.0 °F 24.8 °F 93% 29.84 in 1.2 mi SSW 5.8 mph - 0.01 in Snow Light Snow
5:54 AM 26.1 °F 18.4 °F 24.1 °F 92% 29.86 in 1.5 mi South 6.9 mph - 0.01 in Snow Light Snow
6:15 AM 26.6 °F 19.1 °F 23.0 °F 86% 29.82 in 2.5 mi SSW 6.9 mph - 0.01 in Snow Light Snow
6:28 AM 26.6 °F 19.1 °F 23.0 °F 86% 29.82 in 4.0 mi South 6.9 mph - 0.01 in Snow Light Snow
6:49 AM 26.6 °F 18.2 °F 23.0 °F 86% 29.81 in 1.8 mi South 8.1 mph - 0.01 in Snow Light Snow
6:54 AM 26.1 °F 17.6 °F 23.0 °F 88% 29.84 in 1.5 mi South 8.1 mph - 0.01 in Snow Light Snow
7:07 AM 26.6 °F 17.5 °F 23.0 °F 86% 29.80 in 2.5 mi South 9.2 mph - 0.01 in Snow Light Snow
7:14 AM 26.6 °F 17.5 °F 23.0 °F 86% 29.80 in 2.5 mi South 9.2 mph - 0.01 in Snow Light Snow
7:28 AM 26.6 °F 18.2 °F 23.0 °F 86% 29.80 in 1.8 mi South 8.1 mph - 0.01 in Snow Light Snow
7:54 AM 26.1 °F 18.4 °F 23.0 °F 88% 29.83 in 1.8 mi South 6.9 mph - 0.02 in Snow Light Snow
8:08 AM 26.6 °F 19.1 °F 23.0 °F 86% 29.80 in 2.0 mi South 6.9 mph - 0.00 in Snow Light Snow
8:19 AM 26.6 °F 20.0 °F 23.0 °F 86% 29.79 in 3.0 mi South 5.8 mph - 0.00 in Snow Light Snow
8:25 AM 26.6 °F 20.0 °F 23.0 °F 86% 29.79 in 2.5 mi South 5.8 mph - 0.00 in Snow Light Snow
8:34 AM 26.6 °F 19.1 °F 23.0 °F 86% 29.79 in 1.8 mi South 6.9 mph - 0.00 in Snow Light Snow
8:52 AM 26.1 °F 17.6 °F 23.0 °F 88% 29.82 in 3.0 mi South 8.1 mph - 0.00 in Snow Light Snow
9:54 AM 27.0 °F 17.3 °F 23.0 °F 85% 29.81 in 6.0 mi SSW 10.4 mph - 0.01 in Snow Light Snow
10:54 AM 28.9 °F 20.4 °F 25.0 °F 85% 29.79 in 5.0 mi SSW 9.2 mph - 0.00 in Snow Light Snow
11:37 AM 30.2 °F 21.9 °F 24.8 °F 80% 29.76 in 10.0 mi WSW 9.2 mph - 0.00 in   Overcast
11:54 AM 30.9 °F 24.3 °F 25.0 °F 79% 29.78 in 10.0 mi WSW 6.9 mph - 0.00 in   Overcast
12:16 PM 30.2 °F 21.3 °F 24.8 °F 80% 29.74 in 10.0 mi WSW 10.4 mph - N/A   Overcast
12:54 PM 32.0 °F 25.6 °F 26.1 °F 79% 29.76 in 10.0 mi WSW 6.9 mph - N/A   Overcast
1:10 PM 32.0 °F 24.8 °F 26.6 °F 80% 29.73 in 10.0 mi WSW 8.1 mph - N/A   Overcast
1:54 PM 32.0 °F 24.8 °F 26.1 °F 79% 29.76 in 10.0 mi WSW 8.1 mph 17.3 mph N/A   Overcast
2:54 PM 30.9 °F 23.5 °F 27.0 °F 85% 29.76 in 5.0 mi WSW 8.1 mph - 0.00 in   Overcast
3:54 PM 30.9 °F 24.3 °F 27.0 °F 85% 29.78 in 4.0 mi WSW 6.9 mph - 0.00 in   Overcast
4:54 PM 30.9 °F 26.2 °F 27.0 °F 85% 29.80 in 4.0 mi West 4.6 mph - 0.00 in Snow Light Snow
5:18 PM 30.2 °F - 26.6 °F 86% 29.77 in 6.0 mi Calm Calm - 0.00 in Snow Light Snow
5:41 PM 30.2 °F 25.4 °F 28.4 °F 93% 29.78 in 4.0 mi Variable 4.6 mph - 0.01 in Snow Light Snow
5:54 PM 30.9 °F - 27.0 °F 85% 29.81 in 6.0 mi Calm Calm - 0.01 in Snow Light Snow
6:02 PM 30.2 °F - 26.6 °F 86% 29.78 in 7.0 mi Calm Calm - 0.00 in   Overcast
6:54 PM 30.9 °F 23.5 °F 26.1 °F 82% 29.83 in 10.0 mi West 8.1 mph - 0.00 in   Overcast
7:54 PM 30.0 °F 24.1 °F 25.0 °F 82% 29.85 in 10.0 mi West 5.8 mph - N/A   Mostly Cloudy
8:54 PM 30.9 °F 25.2 °F 25.0 °F 79% 29.86 in 10.0 mi West 5.8 mph - N/A   Overcast
9:54 PM 30.9 °F 25.2 °F 25.0 °F 79% 29.88 in 10.0 mi West 5.8 mph - N/A   Overcast
10:54 PM 30.0 °F 24.1 °F 26.1 °F 85% 29.89 in 10.0 mi West 5.8 mph - 0.00 in   Overcast
11:54 PM 30.0 °F 21.7 °F 25.0 °F 82% 29.91 in 9.0 mi West 9.2 mph - 0.00 in   Overcast